www.pogodaiklimat.ru

Погода и климат >> Архив погоды >> Франция >> Биарриц


ПОГОДА в Биаррице

  • Прогноз погоды в Биаррице
  • Монитор погоды в Биаррице

АРХИВ ПОГОДЫ в Биаррице

Время (UTC), дата Ветер
(напр.,м/с)
 
Видим.   Явления Облачность Т
(С)
Тd
(С)
f
(%)
Тe
(С)
Тes
(С)
Комфортность P
(гПа)
Po
(гПа)
Тmin
(С)
Tmax
(С)
R
(мм)
R24
(мм)
S
(см)
10 13.09 З 1 19 км н/о +20.1 +17.1 83 +24 +24 комфорт 1029.5 1021.1
11 13.09 З 2 19 км н/о +21.0 +17.6 81 +26 +26 душно 1029.1 1020.7
12 13.09 З 2
{7}
15 км н/о +21.5 +17.9 80 +26 +26 душно 1028.4 1020.0 0
13 13.09 З 2 16 км н/о +22.3 +18.1 77 +27 +27 душно 1028.2 1019.9
14 13.09 СЗ 2 22 км н/о +22.1 +18.3 79 +27 +27 душно 1027.7 1019.4
15 13.09 З 2
{6}
17 км н/о +22.5 +18.1 76 +28 +28 душно 1027.4 1019.1 0
16 13.09 З 2 19 км н/о +21.3 +18.1 82 +26 +26 душно 1027.4 1019.0
17 13.09 З 2 17 км н/о +20.2 +18.3 89 +24 +24 комфорт 1027.0 1018.6
18 13.09 СЗ 2
{5}
14 км 9/9 200 м
[]
+19.7 +18.2 91 +23 +23 комфорт 1027.1 1018.7 +13.4 +22.9 0
19 13.09 СЗ 1 12 км 9/9
[]
+19.2 +17.9 92 +22 +22 комфорт 1027.1 1018.7
20 13.09 ЮЗ 1 11 км н/о +18.6 +17.9 96 +21 +21 комфорт 1027.6 1019.2
21 13.09 Ю 1
{3}
7000 м н/о +18.2 +17.7 97 +20 +20 1027.5 1019.1 0
22 13.09 Ю 1 6000 м н/о +17.7 +17.4 98 +19 +19 1027.4 1018.9
23 13.09 Ю 1 8000 м н/о +17.4 +17.2 99 +18 +18 1027.2 1018.7
00 14.09 Ю 1
{3}
8000 м 9/0
[]
+17.5 +17.2 98 +19 +19 1027.0 1018.5 0
01 14.09 Ю 1 6000 м н/о +17.4 +16.9 97 +19 +19 1026.4 1017.9
02 14.09 ЮВ 1 6000 м 10/10 2000 м
[]
+17.2 +17.0 99 +18 +18 1026.2 1017.7
03 14.09 Ю 1
{4}
6000 м 10/0
[]
+17.6 +17.4 99 +19 +19 1025.8 1017.4
04 14.09 ЮВ 2 5000 м 10/10
[]
+17.5 +17.2 98 +18 +18 1025.3 1016.9
05 14.09 З 1 13 км 10/10
[]
+17.7 +17.4 98 +19 +19 1025.2 1016.8
06 14.09 В 1
{4}
7000 м 9/0
[]
+17.8 +16.8 94 +19 +19 1025.6 1017.2 +17.0 +19.7 0
07 14.09 В 1 13 км н/о +18.2 +17.6 96 +20 +20 1025.4 1017.0
08 14.09 ЮВ 1 16 км н/о +20.6 +18.5 88 +26 +26 душно 1025.9 1017.5
09 14.09 ЮВ 1
{3}
24 км н/о +23.5 +18.6 74 +28 +28 душно 1025.7 1017.4 0
10 14.09 ЮВ 1 19 км н/о +25.3 +18.2 65 +30 +30 душно 1025.5 1017.3
11 14.09 С 1 17 км н/о +26.5 +18.1 60 +31 +31 душно 1025.2 1017.0
12 14.09 СВ 1
{6}
19 км н/о +26.8 +19.7 65 +33 +33 очень
душно
1024.6 1016.4 0
13 14.09 С 2 26 км н/о +26.4 +18.5 62 +31 +31 душно 1023.9 1015.7
14 14.09 С 2 22 км н/о +25.5 +17.4 61 +30 +30 душно 1023.5 1015.3
15 14.09 СЗ 2
{7}
20 км н/о +25.8 +17.4 60 +30 +30 душно 1023.0 1014.8 0
16 14.09 С 2 21 км н/о +25.1 +16.8 60 +29 +29 душно 1022.6 1014.4
17 14.09 С 2 30 км н/о +24.3 +17.3 65 +28 +28 душно 1022.9 1014.7
18 14.09 С 1
{4}
40 км н/о +23.7 +18.1 71 +28 +28 душно 1022.7 1014.5 +17.1 +27.7 0
19 14.09 З 1 19 км н/о +21.5 +18.1 81 +26 +26 душно 1023.0 1014.7
20 14.09 СЗ 2 19 км н/о +20.7 +18.5 87 +26 +26 душно 1023.0 1014.7
21 14.09 ЮЗ 1
{3}
28 км н/о +19.9 +17.9 88 +24 +24 комфорт 1023.2 1014.8 0
22 14.09 Ю 1 21 км н/о +19.2 +17.9 92 +23 +23 комфорт 1023.1 1014.7
23 14.09 З 1 16 км н/о +19.5 +18.8 96 +24 +24 комфорт 1023.3 1014.9
00 15.09 Ю 1
{3}
12 км н/о +18.6 +17.8 95 +21 +21 комфорт 1023.1 1014.7 0
01 15.09 Ю 1 15 км н/о +18.3 +17.8 97 +20 +20 1022.6 1014.2
02 15.09 Ю 1 12 км н/о +17.8 +17.5 98 +19 +19 1022.3 1013.9
03 15.09 Ю 1
{3}
10 км 9/0
[]
+17.7 +17.4 98 +19 +19 1022.1 1013.7 0
04 15.09 ЮЗ 1 12 км 10/10
[]
+18.0 +17.4 96 +19 +19 1021.5 1013.1
05 15.09 СВ 1 18 км 10/10
[]
+18.3 +17.8 97 +20 +20 1021.7 1013.3
06 15.09 Ю 1
{3}
10 км 10/0
[]
+17.6 +17.1 97 +19 +19 1022.2 1013.8 +17.4 +23.6 0
07 15.09 ЮВ 1 20 км 10/10
[]
+18.7 +18.2 97 +21 +21 комфорт 1022.2 1013.8
08 15.09 ЮВ 1 22 км 9/9
[]
+21.2 +19.1 88 +26 +26 душно 1022.5 1014.2 0.2
09 15.09 С 1
{3}
35 км 9/0
[]
+22.9 +18.4 76 +29 +29 очень
душно
1022.1 1013.8 0.2 0
10 15.09 З 1 18 км 10/10
[]
+23.4 +19.5 79 +30 +30 очень
душно
1022.1 1013.9
11 15.09 С 2 35 км 9/9
[]
+23.5 +18.4 73 +28 +29 душно 1022.0 1013.8
12 15.09 С 1
{6}
50 км н/о +25.5 +17.9 63 +30 +30 душно 1021.3 1013.1 0
13 15.09 СЗ 1 40 км н/о +26.1 +18.8 64 +31 +31 очень
душно
1021.0 1012.8
14 15.09 СЗ 2 35 км н/о +24.9 +18.8 69 +30 +30 душно 1020.6 1012.4
15 15.09 З 3
{7}
26 км 9/0
[]
+23.8 +18.7 73 +28 +29 душно 1020.9 1012.7 0
16 15.09 З 3 29 км 10/10
[]
+22.5 +18.1 76 +28 +28 душно 1021.8 1013.5
17 15.09 В 1 19 км 10/10 1500 м
[]
+22.7 +16.9 70 +27 +27 душно 1020.5 1012.2 0.0
18 15.09 Ю 1
{4}
30 км 9/0
[]
+21.4 +18.2 82 +26 +26 душно 1020.6 1012.3 +17.6 +26.8 0.0 0
19 15.09 ЮВ 2 22 км н/о +19.7 +18.4 92 +23 +23 комфорт 1020.5 1012.2
20 15.09 Ю 1 24 км н/о +19.9 +18.4 91 +24 +24 комфорт 1020.5 1012.2
21 15.09 Ю 1
{4}
45 км 10/0
[]
+20.1 +18.6 91 +24 +24 комфорт 1021.1 1012.8 0
22 15.09 ЮЗ 1 30 км 9/9
[]
+20.4 +18.2 87 +25 +25 комфорт 1021.6 1013.3
23 15.09 С 1 30 км 9/9
[]
+20.8 +18.0 84 +26 +26 душно 1020.3 1012.0 0.0
00 16.09 Ю 1
{3}
26 км 10/0
[]
+19.4 +18.2 93 +23 +23 комфорт 1020.6 1012.3 0.0 0
01 16.09 Ю 1 30 км 10/10
[]
+19.8 +18.1 90 +24 +24 комфорт 1020.6 1012.3
02 16.09 СЗ 1 35 км 9/9
[]
+19.9 +18.2 90 +24 +24 комфорт 1020.2 1011.9 0.0
03 16.09 Ю 1
{2}
25 км 9/0
[]
+19.5 +18.7 95 +24 +24 комфорт 1020.2 1011.9 0.0 0
04 16.09 ЮВ 1 28 км 10/10
[]
+19.2 +18.2 94 +23 +23 комфорт 1019.7 1011.4
05 16.09 В 1 28 км 10/10 1500 м
[]
+19.0 +17.8 93 +22 +22 комфорт 1019.8 1011.4 0.0
06 16.09 Ю 1
{3}
27 км 10/10 1500 м
[]
+18.7 +17.7 94 +21 +21 комфорт 1019.9 1011.5 +18.7 +21.3 0.0 0
07 16.09 штиль 0 28 км 9/9
[]
+19.2 +18.0 93 +21 +21 комфорт 1019.8 1011.5
08 16.09 СВ 1 35 км 9/9 2000 м
[]
+21.3 +18.7 85 +26 +26 душно 1020.1 1011.8
09 16.09 В 1
{2}
35 км 9/0
[]
+22.1 +18.5 80 +27 +28 душно 1020.5 1012.2 0
10 16.09 СВ 1 29 км 9/9
[]
+24.9 +19.5 72 +30 +31 душно 1020.5 1012.3
11 16.09 СВ 1 35 км н/о +24.3 +20.0 77 +30 +30 очень
душно
1020.2 1012.0
12 16.09 СЗ 2
{7}
19 км н/о +25.1 +20.1 74 +31 +31 очень
душно
1019.9 1011.7 0
13 16.09 СЗ 2 19 км н/о +25.5 +20.3 73 +31 +31 очень
душно
1019.3 1011.1
14 16.09 С 2 22 км н/о +25.2 +16.1 57 +29 +29 душно 1019.0 1010.8
15 16.09 С 3
{8}
21 км н/о +24.6 +16.6 61 +28 +28 душно 1018.7 1010.5 0
16 16.09 С 3 22 км н/о +24.5 +17.5 65 +29 +29 душно 1018.6 1010.4
17 16.09 СЗ 2 35 км н/о +24.5 +16.7 62 +28 +28 душно 1018.4 1010.2
18 16.09 З 1
{5}
50 км н/о +22.8 +17.0 70 +28 +28 душно 1018.6 1010.4 +18.7 +25.7 0
19 16.09 З 2
{3}
24 км н/о +20.9 +18.8 88 +26 +26 душно 1019.3 1011.0
20 16.09 ЮЗ 1 29 км н/о +20.6 +18.4 87 +26 +26 душно 1019.4 1011.1
21 16.09 ЮЗ 1
{3}
27 км 8/0
[]
+19.7 +17.8 89 +24 +24 комфорт 1019.5 1011.2 0
22 16.09 З 1 26 км н/о +19.6 +17.9 90 +23 +23 комфорт 1019.5 1011.2
23 16.09 З 1 19 км н/о +19.3 +18.0 92 +22 +22 комфорт 1019.3 1011.0
00 17.09 ЮЗ 1
{3}
15 км н/о +19.2 +18.4 95 +22 +22 комфорт 1019.0 1010.7
01 17.09 Ю 1 18 км 8/8
[]
+18.7 +17.7 94 +21 +21 комфорт 1018.8 1010.4
02 17.09 Ю 1 20 км н/о +18.2 +17.2 94 +20 +20 1018.4 1010.0
03 17.09 Ю 1
{4}
25 км н/о +17.9 +16.8 93 +19 +19 1017.9 1009.5 0
04 17.09 ЮЗ 1 22 км н/о +18.1 +16.4 90 +20 +20 1017.9 1009.5
05 17.09 З 1 15 км 8/8
[]
+18.1 +17.1 94 +19 +19 1017.7 1009.3
06 17.09 ЮЗ 1
{3}
22 км 10/0
[]
+17.1 +16.1 94 +18 +18 1018.1 1009.7 +17.1 +22.8 0
07 17.09 ЮЗ 1 23 км н/о +18.3 +17.1 93 +20 +20 1018.3 1009.9
08 17.09 ЮЗ 1 26 км н/о +21.2 +18.8 86 +26 +26 душно 1018.4 1010.1
09 17.09 З 2
{5}
18 км н/о +22.1 +19.5 85 +28 +28 душно 1018.6 1010.3 0
10 17.09 З 2 18 км н/о +23.1 +19.7 81 +30 +30 очень
душно
1018.5 1010.3
11 17.09 З 2 26 км н/о +24.3 +17.3 65 +28 +28 душно 1018.1 1009.9
12 17.09 З 2
{5}
40 км н/о +24.4 +17.9 67 +29 +29 душно 1017.7 1009.5 0
13 17.09 СЗ 2 35 км н/о +25.3 +18.0 64 +30 +30 душно 1017.0 1008.8
14 17.09 З 2 40 км н/о +24.2 +18.2 69 +29 +29 душно 1016.8 1008.6
15 17.09 СЗ 2
{6}
18 км н/о +23.3 +20.1 82 +30 +30 очень
душно
1016.7 1008.5 0
16 17.09 З 2 12 км н/о +21.6 +19.9 90 +27 +27 душно 1016.3 1008.1
17 17.09 СЗ 1 10 км 8/8
[]
+21.5 +20.0 91 +27 +27 душно 1015.7 1007.5
18 17.09 З 2
{4}
7000 м 10/10 100 м
[]
+21.1 +20.1 94 +26 +26 душно 1015.8 1007.5 +17.1 +25.3 0
19 17.09 З 2 7000 м 8/6 180 м
[]
+20.6 +19.9 96 +26 +26 душно 1016.0 1007.7
20 17.09 З 1 6000 м 9/4 150 м
[]
+20.6 +20.1 97 +26 +26 душно 1016.3 1008.0
21 17.09 ЮЗ 1
{5}
7000 м 8/8 100 м
[]
+20.3 +19.8 97 +25 +25 комфорт 1016.1 1007.8 0
22 17.09 ЮЗ 1 8000 м 10/3 210 м
[]
+20.2 +19.5 96 +25 +25 комфорт 1016.4 1008.1
23 17.09 З 2 8000 м н/о +20.3 +19.5 95 +25 +25 комфорт 1016.3 1008.0
00 18.09 З 2
{8}
8000 м 10/10 200 м
[]
+20.4 +19.7 96 +25 +25 комфорт 1016.0 1007.7
01 18.09 З 1 11 км 10/9 210 м
[]
+20.5 +19.8 96 +26 +26 душно 1016.0 1007.7
02 18.09 З 2 15 км 10/8 210 м
[]
+20.5 +19.7 95 +25 +25 комфорт 1015.9 1007.6
03 18.09 З 2
{10}
17 км 10/10 300 м
[]
+20.4 +19.1 92 +25 +25 комфорт 1015.8 1007.5 0
04 18.09 З 2 12 км 10/1 1020 м
[]
+20.0 +18.8 93 +24 +24 комфорт 1015.7 1007.4 0.0
05 18.09 ЮЗ 1 13 км 10/10 2000 м
[]
+19.5 +18.3 93 +23 +23 комфорт 1015.6 1007.3
06 18.09 Ю 1
{4}
10 км 9/9 300 м
[]
+19.2 +18.2 94 +23 +23 комфорт 1016.1 1007.8 +19.2 +21.0 0.0 0
07 18.09 ЮЗ 1 15 км 9/8 420 м
[]
+19.5 +18.5 94 +23 +23 комфорт 1016.0 1007.7
08 18.09 Ю 1 16 км 10/10 420 м
[]
+19.6 +18.3 92 +23 +23 комфорт 1017.3 1009.0
09 18.09 З 2
{7}
21 км 9/9 1500 м
[]
+21.2 +18.6 85 +26 +26 душно 1017.1 1008.8 0
10 18.09 З 1 19 км 9/9
[]
+21.7 +18.9 84 +27 +28 душно 1017.1 1008.8
11 18.09 З 3 18 км н/о +22.9 +18.0 74 +28 +28 душно 1017.2 1009.0
12 18.09 З 4
{10}
17 км н/о +23.3 +18.8 76 +30 +30 очень
душно
1017.1 1008.9 0
13 18.09 З 4 15 км 9/6 330 м
[]
+23.1 +20.1 83 +30 +32 очень
душно
1017.4 1009.2
14 18.09 СЗ 4 14 км н/о +22.4 +19.2 82 +28 +28 душно 1017.4 1009.2
15 18.09 СЗ 3
{9}
17 км н/о +21.9 +18.3 80 +27 +27 душно 1017.5 1009.2 0
16 18.09 З 2 23 км н/о +21.8 +18.0 79 +26 +26 душно 1017.8 1009.5 0.2
17 18.09 З 2 35 км н/о +20.6 +17.4 82 +25 +25 комфорт 1017.6 1009.3
18 18.09 З 2
{8}
50 км 8/8 300 м
[]
+19.5 +17.5 88 +22 +22 комфорт 1017.8 1009.5 +19.1 +23.8 0.2 0
19 18.09 З 2 30 км н/о +19.2 +17.5 90 +22 +22 комфорт 1018.2 1009.9
20 18.09 З 2 30 км 10/10 400 м
[]
+19.3 +17.6 90 +22 +22 комфорт 1018.7 1010.4
21 18.09 З 3
{8}
29 км 10/10 300 м
[]
+19.6 +17.6 88 +22 +22 комфорт 1018.8 1010.5 0
22 18.09 З 2 26 км 9/9 480 м
[]
+19.3 +17.4 89 +22 +22 комфорт 1019.0 1010.7
23 18.09 З 2 26 км 9/6 450 м
[]
+19.1 +17.4 90 +21 +21 комфорт 1019.0 1010.7
00 19.09 З 2
{6}
24 км 9/9 300 м
[]
+19.0 +17.5 91 +21 +21 комфорт 1019.0 1010.6
01 19.09 З 2 26 км 10/10 420 м
[]
+19.0 +17.0 88 +21 +21 комфорт 1019.0 1010.6
02 19.09 З 2 27 км 9/9 450 м
[]
+19.0 +17.0 88 +21 +21 комфорт 1018.5 1010.2
03 19.09 З 3
{7}
25 км 10/10 300 м
[]
+19.1 +16.9 87 +21 +21 комфорт 1018.2 1009.9 0
04 19.09 Ю 1 19 км 9/8 400 м
[]
+18.7 +17.2 91 +21 +21 комфорт 1018.1 1009.7
05 19.09 Ю 1 15 км 10/10 420 м
[]
+17.7 +16.9 95 +19 +19 1018.5 1010.1
06 19.09 ЮЗ 1
{4}
13 км н/о +16.6 +16.1 97 +17 +17 1018.7 1010.3 +16.5 +19.6
07 19.09 ЮЗ 1 19 км н/о +17.9 +16.4 91 +19 +19 1018.8 1010.4
08 19.09 З 1 18 км н/о +20.1 +17.1 83 +24 +24 комфорт 1019.2 1010.9
09 19.09 З 2
{6}
19 км н/о +20.9 +16.9 78 +25 +25 комфорт 1019.4 1011.1 0
10 19.09 З 2 19 км н/о +21.7 +17.1 75 +26 +26 душно 1019.4 1011.1
11 19.09 З 2 26 км н/о +22.4 +17.3 73 +27 +27 душно 1019.1 1010.8
12 19.09 З 2
{6}
19 км н/о +22.7 +18.2 76 +28 +28 душно 1018.8 1010.6 0
13 19.09 З 2 19 км н/о +22.8 +18.1 75 +28 +28 душно 1018.3 1010.1
14 19.09 СЗ 2 19 км н/о +23.0 +17.5 71 +28 +28 душно 1017.9 1009.7
15 19.09 З 2
{6}
29 км н/о +22.7 +16.5 68 +27 +27 душно 1017.5 1009.3 0
16 19.09 З 2 30 км н/о +22.4 +16.0 67 +27 +27 душно 1017.3 1009.1
17 19.09 З 2 28 км н/о +21.4 +17.4 78 +25 +25 комфорт 1017.5 1009.2
18 19.09 З 1
{4}
24 км н/о +19.8 +17.4 86 +23 +23 комфорт 1017.5 1009.2 +16.6 +23.1 0
19 19.09 З 1 25 км н/о +19.0 +17.1 89 +22 +22 комфорт 1017.9 1009.6
20 19.09 Ю 1 23 км н/о +18.7 +17.2 91 +21 +21 комфорт 1018.2 1009.8
21 19.09 Ю 1
{1}
21 км н/о +18.2 +17.0 93 +20 +20 1018.4 1010.0 0
22 19.09 Ю 1 18 км н/о +17.6 +16.8 95 +19 +19 1018.0 1009.6
23 19.09 ЮВ 1 9000 м н/о +17.1 +16.6 97 +18 +18 1017.3 1008.9
00 20.09 Ю 1
{2}
9000 м н/о +16.8 +16.5 98 +18 +18 1017.2 1008.8 0
01 20.09 В 1 7000 м н/о +16.3 +16.0 98 +18 +18 1016.9 1008.5
02 20.09 ЮВ 1 5000 м н/о +15.7 +15.5 99 +16 +16 1016.5 1008.1
03 20.09 ЮВ 1
{3}
6000 м н/о +15.3 +15.1 99 +16 +16 1015.8 1007.4
04 20.09 В 2 7000 м н/о +15.4 +15.4 100 +15 +15 1015.3 1006.9
05 20.09 0 9000 м н/о +15.3 +15.1 99 1014.9 1006.5
06 20.09 В 3
{4}
6000 м н/о +15.8 +15.8 100 +15 +15 1015.1 1006.7 +15.1 +19.8 0
07 20.09 В 1 9000 м н/о +17.2 +17.0 99 +18 +18 1015.2 1006.8
08 20.09 В 1 13 км н/о +19.4 +18.1 92 +23 +23 комфорт 1015.5 1007.2
09 20.09 В 1 14 км 9/9 2000 м
[]
+23.5 +18.8 75 +28 +29 душно 1015.2 1007.0
10 20.09 В 1 24 км 10/10
[]
+24.8 +19.4 72 +30 +30 душно 1014.9 1006.8
11 20.09 В 2 30 км 10/10
[]
+26.6 +20.0 67 +33 +33 очень
душно
1014.4 1006.3

 

Местоположение метеостанции Биарриц (Франция): широта 43.47 долгота -1.53 высота над уровнем моря 71 м.

В архиве по умолчанию представлена погода в Биаррице за последнюю неделю. Архивные данные за месяц целиком и за предыдущие месяцы, начиная с января 2011 года, Вы можете получить, выбрав интересующий диапазон дат из раскрывающегося списка и нажав кнопку "Ввод!".


*Определитесь, кто Вы:
робот инопланетянин человек

Внимание! Время в таблицах - всемирное. Для получения местного времени необходимо прибавить поправку, которая равна 1 ч.

Смотрите также архив погоды в соседних городах и на ближайших метеорологических станциях:

Погода в Сибуре (Франция) (14 км)
Погода Сан-Себастьян аэропорту (Испания) (26 км)
Погода в Ирурите (Испания) (37 км)
Погода в Даксе (Франция) (44 км)
Погода в Сан-Себастьяне (Испания) (45 км)
Погода на Мысе Зумая (Испания) (61 км)
Погода в Илундайне (Испания) (77 км)
Погода в Элгойбар - Ибердрола (Испания) (77 км)
Погода в Зумаррага - Урзабалета (Испания) (77 км)
Погода в Памплоне (Испания) (78 км)

Пояснения к столбцам:

Ветер - указаны скорость ветра в м/с - средняя за 10 мин, порывы в срок и между сроками (в фигурных скобках) и направление, откуда дует ветер: С - северный, СВ - северо-восточный, В - восточный, ЮВ - юго-восточный, Ю - южный, ЮЗ - юго-западный, З - западный, СЗ - северо-западный.
Видимость - горизонтальная дальность видимости в метрах или километрах. При видимости от 1 до 10 км при отсутствии осадков обычно наблюдается дымка, при ухудшении видимости до 1 км и менее - туман. В сухую погоду видимость может ухудшаться дымом, пылью или мглою.
Явления - указаны атмосферные явления, наблюдавшиеся в срок или в последний час перед сроком; фигурными скобками обозначены явления, наблюдавшиеся между сроками (за 1-3 часа до срока); квадратными скобками обозначены град или гололедные отложения с указанием их диаметра в мм.
Облачность - указаны через наклонную черту общая и нижняя облачность в баллах и высота нижней границы облаков в метрах; квадратными скобками обозначены формы облаков: Ci - перистые, Cs - перисто-слоистые, Cc - перисто-кучевые, Ac - высококучевые, As - высокослоистые, Sc - слоисто-кучевые, Ns - слоисто-дождевые, Cu - кучевые, Cb - кучево-дождевые. Подробнее классификацию облаков см. в Атласе облаков (PDF).
T - Температура воздуха - температура, измеренная на высоте 2 м над землей.
Td - Температура точки росы - температура, при понижении до которой содержащийся в воздухе водяной пар достигнет насыщения.
f - Относительная влажность воздуха - влажноcть воздуха, измеренная на высоте 2 м над землей.
Te - Эффективная температура - температура, которую ощущает одетый по сезону человек в тени. Характеристика душности погоды. При расчете учитывается влияние влажности воздуха и скорости ветра на теплоощущения человека.
Tes - Эффективная температура на солнце - температура, которую ощущает человек, с поправкой на солнечный нагрев. Характеристика знойности погоды. Зависит от высоты солнца над горизонтом, облачности и скорости ветра. Ночью, в пасмурную погоду, а также при ветре 12 м/с и более поправка равна нулю.
P - Атмосферное давление - приведенное к уровню моря атмосферное давление.
Po - Атмосферное давление - измеренное на уровне метеостанции атмосферное давление.
Tmin - Минимальная температура - минимум температуры воздуха на высоте 2 м над землей.
Tmax - Максимальная температура - максимум температуры воздуха на высоте 2 м над землей.
R - Количество осадков - Количество выпавших осадков за период времени, мм. При наведении курсора мыши на число - период времени, за который выпало указанное количество осадков.
R24 - Количество осадков - Количество выпавших осадков за 24 часа, мм.
S - Снежный покров - Высота снежного покрова, см. При наведении курсора мыши на число - состояние снежного покрова и степень покрытия местности в баллах.